Regional Weather Roundup
Issued by NWS Jackson, KY

Home | Current Version | Previous Version | Text Only | Print | Product List | Glossary On
Versions: 1 2 3 4 5 6 7 8 9 10 11 12 13 14 15 16 17 18 19 20 21 22 23 24 25 26 27 28 29 30 31 32 33 34 35 36 37 38 39 40 41 42 43 44 45 46 47 48 49 50
000
ASUS43 KJKL 200119
RWRJKL

EAST KENTUCKY HOURLY WEATHER ROUNDUP
NATIONAL WEATHER SERVICE JACKSON KY
900 PM EDT SAT APR 19 2014

NOTE: "FAIR" INDICATES FEW OR NO CLOUDS BELOW 12,000 FEET WITH
NO SIGNIFICANT WEATHER AND/OR OBSTRUCTIONS TO VISIBILITY.

* THESE REPORTS ARE NOT UNDER NWS QUALITY CONTROL AND MAY NOT
  REPORT WEATHER SUCH AS PRECIPITATION AND FOG.

KYZ079-080-083-085-087-088-110-112-115-119-120-200200
...EASTERN KENTUCKY...

CITY           SKY/WX    TMP DP  RH WIND       PRES   REMARKS
JACKSON        MOCLDY    64  32  30 VRB3      30.19R
LONDON         PTCLDY    67  35  30 NE7       30.17R
SOMERSET*      PTCLDY    64  34  32 N6        30.18R
MONTICELLO*    CLEAR     59  42  53 N6        30.18R
MIDDLESBORO*   MOCLDY    64  42  44 CALM      30.16R
HARLAN APT*    CLOUDY    64  28  25 CALM      30.17R
PIKEVILLE APT* CLEAR     63  36  36 NE5       30.20R
BIG SANDY*     CLOUDY    62  37  38 NE6       30.19R
ASHLAND*       CLEAR     61  36  39 E3        30.20R
MOREHEAD APT*  CLEAR    N/A N/A N/A MISG      30.22R
$$

KYZ035-036-041-042-044-050-067-078-099-200200
...CENTRAL KENTUCKY...

CITY           SKY/WX    TMP DP  RH WIND       PRES   REMARKS
MT STERLING*   MOCLDY    61  37  41 NE6       30.22R
FLEMING/MASON* CLEAR     61  36  39 N9        30.23R
DANVILLE*      CLEAR     54  37  54 CALM      30.20R
LEXINGTON      CLEAR     62  37  39 N9        30.21R
FRANKFORT      CLEAR     64  32  30 N6        30.20R
$$

KYZ091>093-OHZ055-061-077-WVZ005-015-034-035-042-200200
...SOUTHERN OHIO/WEST VIRGINIA...

CITY           SKY/WX    TMP DP  RH WIND       PRES   REMARKS
COVINGTON      PTCLDY    62  33  33 NE8       30.24R
COLUMBUS       PTCLDY    59  27  29 NE5       30.27R
DAYTON         PTCLDY    53  34  48 NE7       30.28R
WILMINGTON     CLEAR     52  35  52 NE8       30.26R
HUNTINGTON     MOCLDY    62  31  31 NE8       30.21R
CHARLESTON     CLOUDY    63  33  32 NE6       30.21R
PINEVILLE*     CLOUDY    57  43  59 MISG      30.25R
BECKLEY        CLOUDY    59  33  37 NE7       30.23R
BLUEFIELD      CLOUDY    58  35  42 SE7G16    30.24R
$$

VAZ002-007-008-TNZ017-027-036-066-071-200200
...SOUTHWEST VIRGINIA/EAST TENNESSEE...

CITY           SKY/WX    TMP DP  RH WIND       PRES   REMARKS
WISE*          CLOUDY    57  30  35 N6        30.23R
ABINGDON*      CLOUDY    61  35  38 E8        30.20R
BRISTOL        CLOUDY    58  39  49 W5        30.19R
KNOXVILLE      CLOUDY    57  50  77 N5        30.15R
OAK RIDGE      CLOUDY    59  44  57 CALM      30.17R
CROSSVILLE     PTCLDY    59  40  49 S3        30.18R
NASHVILLE      PTCLDY    67  40  37 N7        30.15R
$$

...KEY TO REMARKS...
VSB - VISIBILITY IN MILES
WCI - WIND CHILL INDEX
HX  - HEAT INDEX

$$



USA.gov is the U.S. government's official web portal to all federal, state and local government web resources and services.